Date String (YYYY-MM-DD hh:mm:ss) UTC,Instrument flags,Ambient pressure (hPa),Sample flow (lpm),Bypass flow (lpm),Sample temperature (°C),Ambient temperature (°C),ASC tube jacket temperature (°C),LED temperature (°C),Box temperature (°C),Sample RH (%),Span deviation,Mass concentration (μg/m³),Mass concentration (μg/m³),Mass concentration (μg/m³)
DateTimeUTC,F1_M11,P_M11,Q1_M11,Q2_M11,T1_M11,T2_M11,T3_M11,T4_M11,T5_M11,U1_M11,ZSPAN_M11,X0_M11,X2_M11,X1_M11
2021-12-24 21:00:00,,0809.9,4.99,0.00,23.4,22.7,00.0,32.5,25.1,21.5,0000.0,0001.34,0000.44,0000.27
2021-12-24 21:01:00,,0809.9,5.01,0.00,23.4,22.7,00.0,32.5,25.1,21.6,0000.0,0001.28,0000.41,0000.28
2021-12-24 21:02:00,,0809.9,5.01,0.00,23.4,22.7,00.0,32.5,25.1,21.9,0000.0,0001.28,0000.41,0000.29
2021-12-24 21:03:00,,0809.9,4.99,0.00,23.4,22.7,00.0,32.5,25.1,22.1,0000.0,0000.97,0000.40,0000.29
2021-12-24 21:04:00,,0809.9,5.01,0.00,23.4,22.6,00.0,32.4,25.1,22.2,0000.0,0000.71,0000.39,0000.29
2021-12-24 21:05:00,,0809.9,5.01,0.00,23.4,22.6,00.0,32.4,25.1,22.0,0000.0,0000.62,0000.39,0000.31
2021-12-24 21:06:00,,0810.0,4.99,0.00,23.4,22.6,00.0,32.4,25.0,22.1,0000.0,0000.62,0000.42,0000.35
2021-12-24 21:07:00,,0809.9,5.01,0.00,23.4,22.6,00.0,32.4,25.0,22.4,0000.0,0000.69,0000.48,0000.39
2021-12-24 21:08:00,,0809.9,5.01,0.00,23.4,22.6,00.0,32.4,25.1,22.4,0000.0,0000.73,0000.52,0000.42
2021-12-24 21:09:00,,0810.0,4.99,0.00,23.4,22.6,00.0,32.4,25.1,22.3,0000.0,0000.79,0000.55,0000.46
2021-12-24 21:10:00,,0810.0,5.01,0.00,23.3,22.6,00.0,32.4,25.1,22.3,0000.0,0000.88,0000.60,0000.50
2021-12-24 21:11:00,,0809.9,5.00,0.00,23.4,22.6,00.0,32.4,25.1,22.4,0000.0,0000.94,0000.65,0000.54
2021-12-24 21:12:00,,0809.9,5.01,0.00,23.4,22.6,00.0,32.4,25.1,22.6,0000.0,0001.01,0000.70,0000.58
2021-12-24 21:13:00,,0809.9,5.01,0.00,23.4,22.6,00.0,32.4,25.1,22.3,0000.0,0001.10,0000.77,0000.63
2021-12-24 21:14:00,,0810.0,5.00,0.00,23.4,22.6,00.0,32.4,25.1,22.2,0000.0,0001.18,0000.82,0000.67
2021-12-24 21:15:00,,0810.2,5.00,0.00,23.4,22.6,00.0,32.4,25.1,22.3,0000.0,0001.24,0000.86,0000.71
2021-12-24 21:16:00,,0810.1,5.00,0.00,23.4,22.6,00.0,32.4,25.1,22.4,0000.0,0001.28,0000.88,0000.72
2021-12-24 21:17:00,,0810.1,5.00,0.00,23.4,22.7,00.0,32.4,25.1,22.6,0000.0,0001.29,0000.90,0000.72
2021-12-24 21:18:00,,0810.1,5.01,0.00,23.4,22.7,00.0,32.4,25.1,22.7,0000.0,0001.32,0000.92,0000.74
2021-12-24 21:19:00,,0810.1,5.01,0.00,23.4,22.7,00.0,32.4,25.1,22.7,0000.0,0001.39,0000.96,0000.77
2021-12-24 21:20:00,,0809.9,5.01,0.00,23.4,22.7,00.0,32.4,25.2,22.7,0000.0,0001.44,0000.99,0000.80
2021-12-24 21:21:00,,0809.9,5.00,0.00,23.4,22.7,00.0,32.4,25.2,22.7,0000.0,0001.47,0001.03,0000.83
2021-12-24 21:22:00,,0809.9,4.98,0.00,23.4,22.8,00.0,32.4,25.2,22.7,0000.0,0001.54,0001.06,0000.85
2021-12-24 21:23:00,,0810.0,5.01,0.00,23.4,22.8,00.0,32.4,25.2,22.7,0000.0,0001.80,0001.11,0000.85
2021-12-24 21:24:00,,0809.9,5.01,0.00,23.4,22.8,00.0,32.4,25.2,22.6,0000.0,0001.77,0001.09,0000.84
2021-12-24 21:25:00,,0809.9,5.01,0.00,23.4,22.8,00.0,32.4,25.2,22.6,0000.0,0001.76,0001.09,0000.84
2021-12-24 21:26:00,,0809.9,4.99,0.00,23.4,22.8,00.0,32.4,25.2,22.7,0000.0,0001.86,0001.13,0000.86
2021-12-24 21:27:00,,0809.9,4.99,0.00,23.4,22.8,00.0,32.4,25.2,22.6,0000.0,0001.90,0001.16,0000.88
2021-12-24 21:28:00,,0809.9,5.02,0.00,23.4,22.8,00.0,32.4,25.2,22.5,0000.0,0002.86,0001.18,0000.89
2021-12-24 21:29:00,,0809.9,5.01,0.00,23.4,22.8,00.0,32.4,25.2,22.6,0000.0,0003.38,0001.18,0000.89
2021-12-24 21:30:00,,0809.9,4.98,0.00,23.4,22.8,00.0,32.4,25.2,22.7,0000.0,0003.39,0001.18,0000.89
2021-12-24 21:31:00,,0809.9,5.00,0.00,23.4,22.8,00.0,32.4,25.2,22.9,0000.0,0003.45,0001.20,0000.88
2021-12-24 21:32:00,,0809.9,5.01,0.00,23.4,22.7,00.0,32.4,25.2,22.9,0000.0,0003.42,0001.18,0000.85
2021-12-24 21:33:00,,0809.9,4.99,0.00,23.4,22.7,00.0,32.4,25.2,22.8,0000.0,0003.36,0001.15,0000.83
2021-12-24 21:34:00,,0809.8,5.00,0.00,23.4,22.7,00.0,32.4,25.2,22.7,0000.0,0003.13,0001.10,0000.81
2021-12-24 21:35:00,,0809.7,5.00,0.00,23.4,22.7,00.0,32.4,25.1,22.6,0000.0,0003.24,0001.09,0000.80
2021-12-24 21:36:00,,0809.7,5.01,0.00,23.4,22.7,00.0,32.4,25.1,22.6,0000.0,0003.51,0001.09,0000.78
2021-12-24 21:37:00,,0809.8,4.99,0.00,23.4,22.7,00.0,32.4,25.1,22.6,0000.0,0003.43,0001.04,0000.76
2021-12-24 21:38:00,,0809.9,5.00,0.00,23.4,22.7,00.0,32.4,25.1,22.7,0000.0,0003.35,0000.99,0000.72
2021-12-24 21:39:00,,0809.9,5.00,0.00,23.4,22.7,00.0,32.4,25.0,22.8,0000.0,0003.16,0000.98,0000.70
2021-12-24 21:40:00,,0809.9,5.00,0.00,23.4,22.7,00.0,32.4,25.0,22.9,0000.0,0003.58,0000.93,0000.66
2021-12-24 21:41:00,,0809.9,4.99,0.00,23.3,22.7,00.0,32.4,25.0,22.9,0000.0,0003.49,0000.89,0000.64
2021-12-24 21:42:00,,0810.0,4.99,0.00,23.3,22.6,00.0,32.4,25.0,22.9,0000.0,0003.40,0000.83,0000.61
2021-12-24 21:43:00,,0810.1,5.00,0.00,23.3,22.6,00.0,32.4,25.0,23.1,0000.0,0003.50,0000.79,0000.60
2021-12-24 21:44:00,,0810.1,5.00,0.00,23.3,22.6,00.0,32.4,25.0,23.1,0000.0,0003.70,0000.77,0000.59
2021-12-24 21:45:00,,0810.1,5.00,0.00,23.3,22.6,00.0,32.4,25.0,23.2,0000.0,0003.69,0000.77,0000.60
2021-12-24 21:46:00,,0810.1,5.01,0.00,23.3,22.6,00.0,32.4,25.0,23.2,0000.0,0003.56,0000.77,0000.60
2021-12-24 21:47:00,,0810.1,4.99,0.00,23.3,22.6,00.0,32.3,25.0,23.4,0000.0,0003.27,0000.78,0000.62
2021-12-24 21:48:00,,0810.2,5.01,0.00,23.3,22.6,00.0,32.3,25.0,23.4,0000.0,0003.26,0000.79,0000.64
2021-12-24 21:49:00,,0810.2,5.00,0.00,23.3,22.6,00.0,32.3,25.0,23.5,0000.0,0003.22,0000.78,0000.65
2021-12-24 21:50:00,,0810.2,5.01,0.00,23.3,22.6,00.0,32.3,25.0,23.6,0000.0,0002.58,0000.76,0000.66
2021-12-24 21:51:00,,0810.2,5.01,0.00,23.3,22.6,00.0,32.3,25.0,23.7,0000.0,0001.48,0000.78,0000.67
2021-12-24 21:52:00,,0810.2,5.00,0.00,23.3,22.6,00.0,32.3,25.0,23.6,0000.0,0001.52,0000.80,0000.68
2021-12-24 21:53:00,,0810.2,4.99,0.00,23.3,22.6,00.0,32.3,25.0,23.5,0000.0,0001.49,0000.80,0000.68
2021-12-24 21:54:00,,0810.2,5.00,0.00,23.2,22.6,00.0,32.3,25.0,23.5,0000.0,0001.36,0000.81,0000.69
2021-12-24 21:55:00,,0810.2,5.00,0.00,23.2,22.5,00.0,32.3,25.0,23.6,0000.0,0001.28,0000.84,0000.70
2021-12-24 21:56:00,,0810.2,5.00,0.00,23.2,22.5,00.0,32.3,25.0,23.7,0000.0,0001.28,0000.86,0000.72
2021-12-24 21:57:00,,0810.2,5.00,0.00,23.2,22.5,00.0,32.3,25.0,23.8,0000.0,0001.29,0000.88,0000.74
2021-12-24 21:58:00,,0810.3,5.01,0.00,23.2,22.6,00.0,32.3,25.0,23.8,0000.0,0001.95,0000.88,0000.75
2021-12-24 21:59:00,,0810.4,5.00,0.00,23.2,22.6,00.0,32.3,25.0,23.9,0000.0,0002.76,0000.91,0000.76
